Vorticity
nan nan nan nan nan nan nan nan nan nan nan nan nan nan nan nan nan nan nan nan nan nan nan nan nan nan nan nan nan nan nan nan nan nan nan nan nan nan nan nan nan nan nan
nan 10 8 8 9 8 8 9 9 8 8 8 8 8 10 10 10 9 8 9 9 9 8 8 8 8 8 8 9 9 9 8 8 7 7 10 9 8 9 9 9 8 nan
nan 8 9 9 8 8 9 9 9 9 8 7 7 8 10 10 10 9 9 9 9 9 9 9 9 8 8 8 8 9 8 9 9 8 8 9 8 9 10 9 8 10 nan
nan 10 9 9 9 9 10 10 9 8 8 8 7 7 8 10 10 10 9 9 9 9 10 9 9 8 8 9 9 8 8 8 8 9 8 8 8 9 9 9 11 10 nan
nan 9 10 10 11 9 10 9 9 8 8 9 8 9 8 8 11 11 8 8 8 9 10 11 10 9 9 9 9 8 7 8 7 9 9 9 9 10 8 9 10 10 nan
nan 8 10 12 10 9 8 9 8 8 9 9 9 9 6 7 14 10 8 8 9 9 10 11 11 11 14 12 9 6 7 9 8 9 9 9 9 10 11 9 9 10 nan
nan 9 11 12 12 11 9 11 11 9 10 10 8 8 8 10 13 13 8 4 9 10 9 9 11 12 11 11 14 12 12 12 10 10 11 10 10 10 11 12 10 10 nan
nan 12 10 8 10 10 9 11 9 11 11 9 10 10 9 12 13 14 7 4 5 8 10 10 8 10 13 15 11 11 13 14 18 15 11 12 14 14 13 11 11 13 nan
nan 11 8 5 5 5 8 10 10 12 10 11 10 11 10 12 15 11 5 6 6 10 10 13 13 9 17 15 11 13 13 11 9 9 11 12 11 12 13 13 13 11 nan
nan 11 9 7 6 9 15 11 8 8 10 11 11 12 10 13 12 9 6 8 11 12 12 10 13 18 15 13 13 14 9 9 9 8 10 7 8 11 12 12 14 13 nan
nan 13 12 9 8 11 7 9 15 13 11 11 11 12 13 16 14 16 8 2 12 12 10 9 10 16 13 13 14 15 15 12 10 11 10 10 10 10 12 13 14 15 nan
nan 14 11 9 9 13 11 6 11 13 11 10 11 11 13 13 17 20 11 11 15 11 10 11 14 12 12 13 15 15 13 9 8 9 9 9 8 9 11 11 11 12 nan
nan 18 13 13 13 11 12 9 9 10 10 11 12 11 11 10 10 14 15 15 13 13 15 14 11 9 8 10 13 11 8 8 10 9 8 9 9 11 10 8 9 8 nan
nan 18 18 15 16 16 15 15 13 14 11 11 10 10 9 10 10 8 9 8 8 13 15 12 7 2 7 13 10 7 10 10 10 10 8 10 11 9 7 8 10 8 nan
nan 15 20 18 14 12 12 12 16 14 20 17 10 10 11 10 15 12 10 12 12 11 6 8 9 9 9 8 8 10 10 10 9 9 9 9 9 8 7 9 10 8 nan
nan 13 16 14 12 10 7 9 10 4 8 19 24 13 6 17 22 12 10 13 16 7 4 10 9 9 10 9 8 8 8 9 10 9 8 8 9 9 9 9 8 7 nan
nan 11 11 11 9 7 6 7 2 2 6 15 18 19 19 17 11 10 11 14 7 1 7 10 10 10 10 8 8 8 9 11 10 10 9 8 8 10 10 9 9 10 nan
nan 12 8 10 8 4 8 9 14 12 -1 0 9 15 18 21 15 10 6 4 5 10 13 10 10 10 10 9 8 9 10 11 9 10 10 10 9 9 10 9 9 10 nan
nan 10 12 10 10 9 10 10 12 12 10 9 2 6 12 13 12 15 6 2 9 9 10 9 9 9 9 9 11 12 12 10 10 10 9 10 10 11 10 10 8 8 nan
nan 12 10 12 11 11 10 11 12 11 10 9 9 7 4 7 10 9 9 9 8 9 10 10 10 9 11 11 11 11 10 11 10 9 9 11 11 9 10 10 10 12 nan
nan 15 11 10 14 13 10 10 11 13 11 9 12 17 13 4 9 9 10 9 10 11 10 10 10 11 12 12 11 10 10 9 10 11 11 10 10 11 11 10 11 11 nan
nan 12 13 13 12 13 14 11 12 13 11 10 12 15 9 7 12 11 11 10 10 10 11 12 13 14 13 11 10 11 11 11 12 11 10 10 10 11 11 11 10 10 nan
nan 12 9 9 13 13 13 14 12 12 12 11 10 10 10 10 10 11 11 12 12 13 13 13 13 11 11 11 11 11 10 10 10 10 9 9 9 10 10 10 11 10 nan
nan 11 11 10 9 11 15 13 13 13 13 12 10 9 12 11 11 12 11 13 13 13 12 11 12 11 9 9 10 9 14 14 10 14 10 8 11 10 9 10 10 9 nan
nan 10 10 13 14 11 13 14 15 15 13 11 10 10 10 11 11 13 11 11 12 12 12 10 13 14 13 11 13 7 5 16 11 17 21 13 12 9 9 9 8 12 nan
nan nan nan nan nan nan nan nan nan nan nan nan nan nan nan nan nan nan nan nan nan nan nan nan nan nan nan nan nan nan nan nan nan nan nan nan nan nan nan nan nan nan nan
CAPE
1279 1380 1183 1060 914 911 747 670 503 444 588 700 1123 1251 1236 1298 1767 2175 2130 2100 2220 2069 1950 2091 1991 1771 1472 1537 1653 2787 2736 2201 1366 1028 1325 1255 1931 1795 1710 1863 1841 1701 1430
1353 1414 1215 1076 853 742 695 721 738 704 763 1156 1407 1672 1618 1525 1707 1910 1738 1626 2244 2268 2050 2017 1884 1769 2183 2083 2645 1924 2602 2455 1321 1319 1532 1472 1685 1631 1866 2050 1747 1262 1406
1286 1198 1248 1155 968 750 667 654 810 859 998 1155 1666 1823 2007 1949 1983 2026 2025 2092 1773 1841 1898 1876 1764 1725 1987 1937 2395 2516 2818 2597 2443 1203 1331 1312 1466 1564 1614 1751 1909 1589 1564
1243 1153 1271 1276 1211 1007 858 836 672 929 826 1059 1532 1698 2050 2085 1942 1823 1757 1872 1820 1575 1592 1674 1569 1368 1317 1256 1550 1932 1763 1673 2085 1614 1349 1150 1171 1396 1559 1406 1121 998 1231
1659 1600 1872 1846 1829 1504 1502 1367 1135 1298 1211 1250 1495 1692 1976 1918 1630 1770 1815 1701 1579 1525 1309 1102 1020 796 560 515 1158 1970 2314 1944 1388 1255 1108 1073 1064 966 1366 1055 1178 1284 1463
2240 2033 1929 1831 1696 1680 1783 1692 1801 1784 1775 1817 1734 1994 1835 1492 895 520 1220 1801 1427 1223 1190 1145 1226 727 538 168 121 194 662 2677 2181 1944 1023 1204 1586 2150 1354 1854 1478 1233 874
2264 1977 1655 1772 1729 1628 1645 1730 1923 2164 2082 1929 1795 1795 1745 1740 751 88 17 1440 1183 679 876 1189 1294 1259 1170 1737 808 27 12 0 64 1127 1304 1077 1216 1652 1296 1036 793 858 803
2197 2058 1921 1372 942 871 1478 1950 2005 1827 1945 1930 1727 1921 1836 1801 885 1 0 1357 1193 648 661 1234 1271 1408 1925 1806 1835 1943 1745 1393 486 274 398 501 106 8 10 11 15 41 98
2304 2305 2496 1567 858 1147 1590 1771 1990 1859 1690 1695 1630 1704 1718 1744 730 5 0 1490 1250 1018 966 1114 1270 1799 1450 70 1227 1596 1073 64 0 0 0 0 0 0 1 13 11 29 21
2441 2571 2721 2161 1230 1205 1977 2401 2772 2259 2225 1951 1932 2084 1810 2368 865 1 0 1504 1346 1421 1774 269 0 167 0 0 915 1313 1082 135 2 1 0 0 0 1 0 15 22 32 34
2633 2652 2848 2799 2447 2292 1803 1466 1923 2589 2633 2393 2308 2380 2390 2230 1847 1 1 2051 2501 1709 214 4 3 0 0 1 38 632 522 2 0 0 0 1 3 6 10 15 12 12 18
2766 2873 3040 3009 2750 2414 2333 1561 2176 2347 2745 2840 2773 2398 2226 1362 195 1 1 258 858 1386 380 3 1 0 0 0 0 0 0 0 0 0 0 0 1 4 6 7 7 15 13
2393 2911 3019 2870 2763 2944 2704 2912 2417 2897 2655 2464 2086 1255 514 6 4 1 1 1 37 947 442 0 1 1 0 0 0 0 0 0 0 0 1 3 3 3 4 11 17 20 12
1524 2339 2836 2740 2609 2556 2516 2685 2765 2528 2553 2002 1447 775 274 6 2 0 0 0 1 0 1 0 0 0 0 0 0 0 0 0 0 0 0 2 4 9 6 5 6 8 11
1427 1982 2111 2503 1339 3 2 2 462 200 860 2043 1685 804 286 152 76 0 0 0 2 0 2 5 4 2 1 0 0 0 0 0 0 0 1 2 4 8 6 3 2 5 2
924 1808 1435 61 6 28 26 3 1 0 1 1 391 930 585 200 0 0 0 0 1 0 3 6 4 2 0 0 0 1 0 0 0 1 0 0 0 4 5 4 5 7 5
719 1478 1207 400 541 358 43 3 0 0 1 2 2 1 1 0 2 1 0 2 1 0 6 6 2 3 1 2 2 3 4 1 0 1 0 1 1 1 0 7 12 13 15
695 866 1582 1024 1175 842 216 10 0 0 0 4 0 0 1 2 1 2 2 1 1 1 7 1 0 0 0 1 4 15 54 4 7 8 3 6 12 11 12 6 8 13 15
283 1002 1327 1376 1250 642 283 43 38 93 461 80 3 0 0 1 1 1 1 0 2 4 3 4 2 8 44 68 89 91 53 18 11 13 15 11 16 11 12 16 9 0 0
758 478 866 971 1173 906 241 161 119 189 608 56 53 65 1 0 1 2 1 7 7 4 6 7 62 79 83 67 50 71 57 9 2 12 16 11 11 15 10 11 20 9 8
737 664 688 841 1203 840 224 78 172 347 553 402 155 10 0 6 4 2 2 4 5 66 80 119 104 84 102 85 82 103 43 27 15 12 3 5 9 11 11 12 19 18 6
658 570 704 723 788 757 430 223 493 528 533 392 246 0 1 5 63 6 3 4 5 8 22 14 15 20 61 46 70 114 48 3 0 0 0 0 2 2 4 6 11 19 19
502 315 437 292 333 234 94 205 321 472 398 302 83 0 1 0 0 3 0 1 3 2 3 9 32 57 61 66 101 73 4 5 1 0 0 2 14 26 26 22 22 15 11
383 113 50 58 299 7 171 194 180 126 274 272 29 8 0 0 0 0 0 0 0 12 31 37 58 98 141 166 117 120 96 106 103 113 92 51 30 37 33 66 70 38 39
221 136 298 123 90 28 16 39 144 309 228 76 8 9 0 0 0 0 0 0 16 46 62 66 52 68 116 123 138 153 0 0 51 0 219 151 140 103 86 74 69 72 86
400 212 322 131 23 37 54 84 270 247 147 80 107 115 133 62 37 15 3 11 46 57 68 82 95 101 108 78 0 0 0 0 0 0 17 96 156 214 201 220 203 178 104